Tracking 28790 objects as of 19-Apr-2024
HD Live streaming from Space Station
objects crossing your sky now

DELTA 1 DEB

Track DELTA 1 DEB now!
10-day predictions


NORAD ID: 12167
Int'l Code: 1978-026G
Perigee: 736.1 km
Apogee: 968.8 km
Inclination: 98.7 °
Period: 101.8 minutes
Semi major axis: 7223 km
RCS: 0.1582 m2 (medium)
Launch date: March 5, 1978
Source: United States (US)
Launch site: AIR FORCE WESTERN TEST RANGE (AFWTR)

Note: This is SATELLITE DEBRIS
Your satellite tracking list
Your tracking list is empty




NASA's NSSDC Master Catalog

Two Line Element Set (TLE):
1 12167U 78026G   24109.89615517  .00001867  00000-0  88586-3 0  9998
2 12167  98.6649  63.5526 0161080 282.5904 145.9983 14.14130642220395
Source of the keplerian elements: AFSPC